Time,TemperatureF,DewpointF,PressureIn,WindDirection,WindDirectionDegrees,WindSpeedMPH,WindSpeedGustMPH,Humidity,HourlyPrecipIn,Conditions,Clouds,dailyrainin,SoftwareType,DateUTC
2013-03-19 00:03:00,25.8,14.6,30.08,NNE,30,0.0,2.0,62,0.00,,---,0.00,VWS V13.01,2013-03-19 06:03:00,
2013-03-19 00:08:00,25.8,14.2,30.08,ENE,76,1.0,4.0,61,0.00,,---,0.00,VWS V13.01,2013-03-19 06:08:00,
2013-03-19 00:13:00,26.0,14.8,30.08,ENE,78,0.0,0.0,62,0.00,,---,0.00,VWS V13.01,2013-03-19 06:13:00,
2013-03-19 00:19:00,26.0,14.0,30.06,NNW,345,2.0,3.0,60,0.00,,---,0.00,VWS V13.01,2013-03-19 06:19:00,
2013-03-19 00:24:00,26.0,13.6,30.06,NNW,333,0.0,2.0,59,0.00,,---,0.00,VWS V13.01,2013-03-19 06:24:00,
2013-03-19 00:29:00,26.1,14.1,30.06,ESE,104,0.0,4.0,60,0.00,,---,0.00,VWS V13.01,2013-03-19 06:29:00,
2013-03-19 00:34:00,26.1,14.9,30.07,East,83,0.0,1.0,62,0.00,,---,0.00,VWS V13.01,2013-03-19 06:34:00,
2013-03-19 00:39:00,26.1,14.5,30.07,NE,47,0.0,3.0,61,0.00,,---,0.00,VWS V13.01,2013-03-19 06:39:00,
2013-03-19 00:45:00,26.0,14.4,30.07,NNE,17,0.0,1.0,61,0.00,,---,0.00,VWS V13.01,2013-03-19 06:45:00,
2013-03-19 00:50:00,25.7,14.5,30.08,ENE,66,0.0,2.0,62,0.00,,---,0.00,VWS V13.01,2013-03-19 06:50:00,
2013-03-19 00:55:00,25.6,14.4,30.08,ENE,76,1.0,4.0,62,0.00,,---,0.00,VWS V13.01,2013-03-19 06:55:00,
2013-03-19 01:00:00,25.4,13.5,30.10,ENE,72,0.0,6.0,60,0.00,,---,0.00,VWS V13.01,2013-03-19 07:00:00,
2013-03-19 01:05:00,25.4,14.6,30.10,NNW,348,2.0,4.0,63,0.00,,---,0.00,VWS V13.01,2013-03-19 07:05:00,
2013-03-19 01:11:00,25.3,15.6,30.10,NE,51,0.0,5.0,66,0.00,,---,0.00,VWS V13.01,2013-03-19 07:11:00,
2013-03-19 01:16:00,25.1,16.0,30.08,ENE,60,0.0,0.0,68,0.00,,---,0.00,VWS V13.01,2013-03-19 07:16:00,
2013-03-19 01:22:00,24.8,16.1,30.08,East,99,2.0,3.0,69,0.00,,---,0.00,VWS V13.01,2013-03-19 07:22:00,
2013-03-19 01:27:00,24.7,16.3,30.08,NE,43,0.0,0.0,70,0.00,,---,0.00,VWS V13.01,2013-03-19 07:27:00,
2013-03-19 01:32:00,24.5,16.8,30.09,ENE,71,2.0,3.0,72,0.00,,---,0.00,VWS V13.01,2013-03-19 07:32:00,
2013-03-19 01:37:00,24.4,16.7,30.09,ENE,69,0.0,0.0,72,0.00,,---,0.00,VWS V13.01,2013-03-19 07:37:00,
2013-03-19 01:42:00,24.4,16.7,30.09,ENE,69,0.0,1.0,72,0.00,,---,0.00,VWS V13.01,2013-03-19 07:42:00,
2013-03-19 01:47:00,24.2,16.5,30.10,ENE,69,0.0,0.0,72,0.00,,---,0.00,VWS V13.01,2013-03-19 07:47:00,
2013-03-19 01:52:00,24.1,16.4,30.10,ENE,69,0.0,0.0,72,0.00,,---,0.00,VWS V13.01,2013-03-19 07:52:00,
2013-03-19 01:58:00,24.1,16.7,30.10,ENE,69,0.0,0.0,73,0.00,,---,0.00,VWS V13.01,2013-03-19 07:58:00,
2013-03-19 02:03:00,24.1,16.1,30.10,ENE,70,0.0,0.0,71,0.00,,---,0.00,VWS V13.01,2013-03-19 08:03:00,
2013-03-19 02:08:00,24.1,15.1,30.10,NE,55,0.0,0.0,68,0.00,,---,0.00,VWS V13.01,2013-03-19 08:08:00,
2013-03-19 02:13:00,24.5,14.8,30.10,NE,52,0.0,4.0,66,0.00,,---,0.00,VWS V13.01,2013-03-19 08:13:00,
2013-03-19 02:18:00,25.0,14.2,30.11,WSW,249,0.0,3.0,63,0.00,,---,0.00,VWS V13.01,2013-03-19 08:18:00,
2013-03-19 02:23:00,25.3,14.8,30.11,NE,44,1.0,3.0,64,0.00,,---,0.00,VWS V13.01,2013-03-19 08:23:00,
2013-03-19 02:28:00,25.4,15.3,30.11,ENE,62,0.0,4.0,65,0.00,,---,0.00,VWS V13.01,2013-03-19 08:28:00,
2013-03-19 02:34:00,25.4,14.6,30.12,East,100,0.0,2.0,63,0.00,,---,0.00,VWS V13.01,2013-03-19 08:34:00,
2013-03-19 02:39:00,25.4,14.9,30.12,East,92,1.0,3.0,64,0.00,,---,0.00,VWS V13.01,2013-03-19 08:39:00,
2013-03-19 02:44:00,25.4,13.1,30.12,East,101,0.0,2.0,59,0.00,,---,0.00,VWS V13.01,2013-03-19 08:44:00,
2013-03-19 02:49:00,25.3,13.0,30.13,ENE,68,0.0,2.0,59,0.00,,---,0.00,VWS V13.01,2013-03-19 08:49:00,
2013-03-19 02:55:00,25.3,13.0,30.13,NNW,327,1.0,6.0,59,0.00,,---,0.00,VWS V13.01,2013-03-19 08:55:00,
2013-03-19 03:00:00,25.3,13.0,30.13,North,9,0.0,5.0,59,0.00,,---,0.00,VWS V13.01,2013-03-19 09:00:00,
2013-03-19 03:05:00,25.3,13.4,30.13,NE,40,0.0,3.0,60,0.00,,---,0.00,VWS V13.01,2013-03-19 09:05:00,
2013-03-19 03:10:00,25.3,13.0,30.13,NNE,32,0.0,3.0,59,0.00,,---,0.00,VWS V13.01,2013-03-19 09:10:00,
2013-03-19 03:15:00,25.1,13.2,30.14,NE,53,0.0,2.0,60,0.00,,---,0.00,VWS V13.01,2013-03-19 09:15:00,
2013-03-19 03:21:00,25.0,13.1,30.14,ENE,75,2.0,3.0,60,0.00,,---,0.00,VWS V13.01,2013-03-19 09:21:00,
2013-03-19 03:26:00,25.1,13.2,30.14,NE,51,1.0,11.0,60,0.00,,---,0.00,VWS V13.01,2013-03-19 09:26:00,
2013-03-19 03:31:00,25.1,13.2,30.14,East,81,0.0,3.0,60,0.00,,---,0.00,VWS V13.01,2013-03-19 09:31:00,
2013-03-19 03:36:00,25.0,13.1,30.14,ENE,71,0.0,3.0,60,0.00,,---,0.00,VWS V13.01,2013-03-19 09:36:00,
2013-03-19 03:41:00,25.0,13.5,30.14,NNE,32,0.0,0.0,61,0.00,,---,0.00,VWS V13.01,2013-03-19 09:41:00,
2013-03-19 03:46:00,24.8,13.3,30.15,NNE,32,0.0,0.0,61,0.00,,---,0.00,VWS V13.01,2013-03-19 09:46:00,
2013-03-19 03:52:00,24.7,13.6,30.15,ESE,117,1.0,2.0,62,0.00,,---,0.00,VWS V13.01,2013-03-19 09:52:00,
2013-03-19 03:57:00,24.5,13.7,30.15,NE,54,0.0,0.0,63,0.00,,---,0.00,VWS V13.01,2013-03-19 09:57:00,
2013-03-19 04:02:00,24.5,13.7,30.15,NE,40,1.0,3.0,63,0.00,,---,0.00,VWS V13.01,2013-03-19 10:02:00,
2013-03-19 04:07:00,24.5,13.7,30.15,East,79,5.0,5.0,63,0.00,,---,0.00,VWS V13.01,2013-03-19 10:07:00,
2013-03-19 04:12:00,24.5,13.7,30.15,ENE,78,2.0,5.0,63,0.00,,---,0.00,VWS V13.01,2013-03-19 10:12:00,
2013-03-19 04:18:00,24.5,13.7,30.16,SSW,198,0.0,3.0,63,0.00,,---,0.00,VWS V13.01,2013-03-19 10:18:00,
2013-03-19 04:23:00,24.5,13.7,30.16,ENE,60,1.0,2.0,63,0.00,,---,0.00,VWS V13.01,2013-03-19 10:23:00,
2013-03-19 04:28:00,24.5,13.4,30.16,NNW,327,3.0,4.0,62,0.00,,---,0.00,VWS V13.01,2013-03-19 10:28:00,
2013-03-19 04:33:00,24.7,13.2,30.16,NE,50,2.0,3.0,61,0.00,,---,0.00,VWS V13.01,2013-03-19 10:33:00,
2013-03-19 04:39:00,24.8,12.9,30.16,NE,35,0.0,2.0,60,0.00,,---,0.00,VWS V13.01,2013-03-19 10:39:00,
2013-03-19 04:44:00,24.7,13.2,30.16,NE,34,0.0,3.0,61,0.00,,---,0.00,VWS V13.01,2013-03-19 10:44:00,
2013-03-19 04:49:00,24.5,13.0,30.17,NNE,20,2.0,4.0,61,0.00,,---,0.00,VWS V13.01,2013-03-19 10:49:00,
2013-03-19 04:55:00,24.4,12.9,30.17,East,86,3.0,5.0,61,0.00,,---,0.00,VWS V13.01,2013-03-19 10:55:00,
2013-03-19 05:00:00,24.5,12.6,30.18,NE,41,0.0,2.0,60,0.00,,---,0.00,VWS V13.01,2013-03-19 11:00:00,
2013-03-19 05:05:00,24.5,12.6,30.18,North,360,1.0,2.0,60,0.00,,---,0.00,VWS V13.01,2013-03-19 11:05:00,
2013-03-19 05:10:00,24.5,13.0,30.18,NE,56,1.0,6.0,61,0.00,,---,0.00,VWS V13.01,2013-03-19 11:10:00,
2013-03-19 05:15:00,24.5,12.6,30.20,NNE,22,0.0,4.0,60,0.00,,---,0.00,VWS V13.01,2013-03-19 11:15:00,
2013-03-19 05:20:00,24.5,13.0,30.20,ENE,71,2.0,5.0,61,0.00,,---,0.00,VWS V13.01,2013-03-19 11:20:00,
2013-03-19 05:25:00,24.7,13.6,30.20,NW,317,1.0,6.0,62,0.00,,---,0.00,VWS V13.01,2013-03-19 11:25:00,
2013-03-19 05:31:00,24.8,14.0,30.21,East,90,0.0,4.0,63,0.00,,---,0.00,VWS V13.01,2013-03-19 11:31:00,
2013-03-19 05:36:00,25.0,13.5,30.21,NNE,32,2.0,5.0,61,0.00,,---,0.00,VWS V13.01,2013-03-19 11:36:00,
2013-03-19 05:41:00,25.1,13.6,30.21,NNW,333,0.0,6.0,61,0.00,,---,0.00,VWS V13.01,2013-03-19 11:41:00,
2013-03-19 05:46:00,25.1,13.9,30.21,NNW,343,0.0,6.0,62,0.00,,---,0.00,VWS V13.01,2013-03-19 11:46:00,
2013-03-19 05:51:00,25.1,13.6,30.21,WSW,258,0.0,10.0,61,0.00,,---,0.00,VWS V13.01,2013-03-19 11:51:00,
2013-03-19 05:56:00,25.0,13.1,30.21,ENE,67,0.0,0.0,60,0.00,,---,0.00,VWS V13.01,2013-03-19 11:56:00,
2013-03-19 06:02:00,25.0,12.7,30.21,North,11,3.0,4.0,59,0.00,,---,0.00,VWS V13.01,2013-03-19 12:02:00,
2013-03-19 06:07:00,25.0,12.7,30.21,NE,45,0.0,1.0,59,0.00,,---,0.00,VWS V13.01,2013-03-19 12:07:00,
2013-03-19 06:12:00,24.8,12.5,30.21,NNE,13,9.0,10.0,59,0.00,,---,0.00,VWS V13.01,2013-03-19 12:12:00,
2013-03-19 06:17:00,24.8,12.1,30.25,NNE,22,6.0,15.0,58,0.00,,---,0.00,VWS V13.01,2013-03-19 12:17:00,
2013-03-19 06:22:00,24.8,12.1,30.25,NNW,331,4.0,5.0,58,0.00,,---,0.00,VWS V13.01,2013-03-19 12:22:00,
2013-03-19 06:27:00,25.0,11.9,30.25,NW,324,2.0,5.0,57,0.00,,---,0.00,VWS V13.01,2013-03-19 12:27:00,
2013-03-19 06:33:00,25.1,12.4,30.25,NNW,346,2.0,4.0,58,0.00,,---,0.00,VWS V13.01,2013-03-19 12:33:00,
2013-03-19 06:38:00,25.0,12.3,30.25,WNW,287,6.0,6.0,58,0.00,,---,0.00,VWS V13.01,2013-03-19 12:38:00,
2013-03-19 06:43:00,25.0,12.7,30.25,East,81,0.0,0.0,59,0.00,,---,0.00,VWS V13.01,2013-03-19 12:43:00,
2013-03-19 06:48:00,24.8,12.5,30.26,North,5,0.0,4.0,59,0.00,,---,0.00,VWS V13.01,2013-03-19 12:48:00,
2013-03-19 06:54:00,24.7,12.4,30.26,South,183,0.0,2.0,59,0.00,,---,0.00,VWS V13.01,2013-03-19 12:54:00,
2013-03-19 06:59:00,24.5,12.2,30.26,NNW,329,0.0,4.0,59,0.00,,---,0.00,VWS V13.01,2013-03-19 12:59:00,
2013-03-19 07:04:00,24.5,12.2,30.27,NNW,327,3.0,4.0,59,0.00,,---,0.00,VWS V13.01,2013-03-19 13:04:00,
2013-03-19 07:09:00,24.7,12.0,30.27,WSW,257,4.0,9.0,58,0.00,,---,0.00,VWS V13.01,2013-03-19 13:09:00,
2013-03-19 07:15:00,24.7,12.4,30.27,North,351,1.0,4.0,59,0.00,,---,0.00,VWS V13.01,2013-03-19 13:15:00,
2013-03-19 07:20:00,24.7,12.4,30.30,NNE,26,0.0,4.0,59,0.00,,---,0.00,VWS V13.01,2013-03-19 13:20:00,
2013-03-19 07:25:00,24.4,12.1,30.30,NNW,327,0.0,2.0,59,0.00,,---,0.00,VWS V13.01,2013-03-19 13:25:00,
2013-03-19 07:30:00,24.4,12.1,30.30,NNE,29,3.0,4.0,59,0.00,,---,0.00,VWS V13.01,2013-03-19 13:30:00,
2013-03-19 07:35:00,24.4,12.1,30.30,NNE,29,0.0,2.0,59,0.00,,---,0.00,VWS V13.01,2013-03-19 13:35:00,
2013-03-19 07:41:00,24.4,12.1,30.30,North,355,0.0,6.0,59,0.00,,---,0.00,VWS V13.01,2013-03-19 13:41:00,
2013-03-19 07:46:00,24.2,11.9,30.32,NE,55,0.0,4.0,59,0.00,,---,0.00,VWS V13.01,2013-03-19 13:46:00,
2013-03-19 07:51:00,24.2,11.2,30.32,West,278,2.0,4.0,57,0.00,,---,0.00,VWS V13.01,2013-03-19 13:51:00,
2013-03-19 07:56:00,24.4,12.1,30.32,West,279,0.0,0.0,59,0.00,,---,0.00,VWS V13.01,2013-03-19 13:56:00,
2013-03-19 08:01:00,24.2,11.6,30.33,West,279,0.0,0.0,58,0.00,,---,0.00,VWS V13.01,2013-03-19 14:01:00,
2013-03-19 08:06:00,24.1,11.9,30.33,NNW,338,0.0,1.0,59,0.00,,---,0.00,VWS V13.01,2013-03-19 14:06:00,
2013-03-19 08:12:00,24.2,11.2,30.33,North,355,3.0,3.0,57,0.00,,---,0.00,VWS V13.01,2013-03-19 14:12:00,
2013-03-19 08:17:00,24.5,11.5,30.33,NNW,335,3.0,4.0,57,0.00,,---,0.00,VWS V13.01,2013-03-19 14:17:00,
2013-03-19 08:22:00,24.8,11.3,30.33,NE,42,2.0,3.0,56,0.00,,---,0.00,VWS V13.01,2013-03-19 14:22:00,
2013-03-19 08:27:00,25.0,11.9,30.33,NE,34,3.0,6.0,57,0.00,,---,0.00,VWS V13.01,2013-03-19 14:27:00,
2013-03-19 08:32:00,25.1,12.0,30.34,NE,55,3.0,3.0,57,0.00,,---,0.00,VWS V13.01,2013-03-19 14:32:00,
2013-03-19 08:38:00,25.3,12.2,30.34,NNE,13,5.0,5.0,57,0.00,,---,0.00,VWS V13.01,2013-03-19 14:38:00,
2013-03-19 08:43:00,25.3,11.8,30.34,NNE,16,2.0,2.0,56,0.00,,---,0.00,VWS V13.01,2013-03-19 14:43:00,
2013-03-19 08:48:00,25.3,11.8,30.34,North,5,3.0,3.0,56,0.00,,---,0.00,VWS V13.01,2013-03-19 14:48:00,
2013-03-19 08:53:00,25.3,11.8,30.34,North,5,0.0,3.0,56,0.00,,---,0.00,VWS V13.01,2013-03-19 14:53:00,
2013-03-19 08:59:00,25.3,11.4,30.34,NW,324,0.0,4.0,55,0.00,,---,0.00,VWS V13.01,2013-03-19 14:59:00,
2013-03-19 09:04:00,25.6,11.3,30.35,NNW,348,0.0,7.0,54,0.00,,---,0.00,VWS V13.01,2013-03-19 15:04:00,
2013-03-19 09:09:00,25.7,11.4,30.35,ENE,69,0.0,4.0,54,0.00,,---,0.00,VWS V13.01,2013-03-19 15:09:00,
2013-03-19 09:14:00,26.0,11.6,30.35,NE,44,0.0,5.0,54,0.00,,---,0.00,VWS V13.01,2013-03-19 15:14:00,
2013-03-19 09:19:00,26.1,10.9,30.35,ESE,109,0.0,5.0,52,0.00,,---,0.00,VWS V13.01,2013-03-19 15:19:00,
2013-03-19 09:24:00,26.3,11.1,30.35,East,79,2.0,3.0,52,0.00,,---,0.00,VWS V13.01,2013-03-19 15:24:00,
2013-03-19 09:30:00,26.4,10.7,30.35,NW,322,0.0,7.0,51,0.00,,---,0.00,VWS V13.01,2013-03-19 15:30:00,
2013-03-19 09:35:00,26.6,11.4,30.35,NNE,18,0.0,4.0,52,0.00,,---,0.00,VWS V13.01,2013-03-19 15:35:00,
2013-03-19 09:40:00,26.4,10.7,30.35,NW,321,0.0,5.0,51,0.00,,---,0.00,VWS V13.01,2013-03-19 15:40:00,
2013-03-19 09:45:00,26.4,11.2,30.35,NNE,28,2.0,6.0,52,0.00,,---,0.00,VWS V13.01,2013-03-19 15:45:00,
2013-03-19 09:50:00,26.6,11.4,30.35,ESE,123,4.0,4.0,52,0.00,,---,0.00,VWS V13.01,2013-03-19 15:50:00,
2013-03-19 09:56:00,27.0,11.3,30.35,North,10,5.0,5.0,51,0.00,,---,0.00,VWS V13.01,2013-03-19 15:56:00,
2013-03-19 10:01:00,27.0,9.9,30.36,NNE,15,1.0,8.0,48,0.00,,---,0.00,VWS V13.01,2013-03-19 16:01:00,
2013-03-19 10:06:00,27.3,10.7,30.36,NNE,27,7.0,7.0,49,0.00,,---,0.00,VWS V13.01,2013-03-19 16:06:00,
2013-03-19 10:12:00,27.5,9.9,30.36,NE,53,2.0,3.0,47,0.00,,---,0.00,VWS V13.01,2013-03-19 16:12:00,
2013-03-19 10:17:00,27.6,8.0,30.35,NNE,21,0.0,2.0,43,0.00,,---,0.00,VWS V13.01,2013-03-19 16:17:00,
2013-03-19 10:23:00,27.8,9.7,30.35,NE,53,1.0,1.0,46,0.00,,---,0.00,VWS V13.01,2013-03-19 16:23:00,
2013-03-19 10:28:00,27.8,8.7,30.35,NNW,335,2.0,5.0,44,0.00,,---,0.00,VWS V13.01,2013-03-19 16:28:00,
2013-03-19 10:33:00,27.8,9.2,30.35,NE,42,0.0,2.0,45,0.00,,---,0.00,VWS V13.01,2013-03-19 16:33:00,
2013-03-19 10:38:00,27.8,9.2,30.35,NE,55,1.0,7.0,45,0.00,,---,0.00,VWS V13.01,2013-03-19 16:38:00,
2013-03-19 10:43:00,28.1,8.5,30.35,WSW,257,0.0,4.0,43,0.00,,---,0.00,VWS V13.01,2013-03-19 16:43:00,
2013-03-19 10:48:00,28.4,8.2,30.35,NW,321,2.0,9.0,42,0.00,,---,0.00,VWS V13.01,2013-03-19 16:48:00,
2013-03-19 10:54:00,28.5,8.3,30.35,NE,53,2.0,4.0,42,0.00,,---,0.00,VWS V13.01,2013-03-19 16:54:00,
2013-03-19 10:59:00,28.7,8.5,30.35,North,5,0.0,6.0,42,0.00,,---,0.00,VWS V13.01,2013-03-19 16:59:00,
2013-03-19 11:04:00,28.8,9.1,30.35,NNE,13,1.0,8.0,43,0.00,,---,0.00,VWS V13.01,2013-03-19 17:04:00,
2013-03-19 11:09:00,29.3,9.1,30.35,WSW,243,0.0,5.0,42,0.00,,---,0.00,VWS V13.01,2013-03-19 17:09:00,
2013-03-19 11:15:00,29.8,7.3,30.35,WSW,244,1.0,2.0,38,0.00,,---,0.00,VWS V13.01,2013-03-19 17:15:00,
2013-03-19 11:20:00,30.3,9.4,30.35,WNW,296,6.0,6.0,41,0.00,,---,0.00,VWS V13.01,2013-03-19 17:20:00,
2013-03-19 11:25:00,30.7,9.8,30.35,NNE,21,1.0,5.0,41,0.00,,---,0.00,VWS V13.01,2013-03-19 17:25:00,
2013-03-19 11:31:00,31.0,7.8,30.35,ENE,58,1.0,6.0,37,0.00,,---,0.00,VWS V13.01,2013-03-19 17:31:00,
2013-03-19 11:36:00,31.3,7.5,30.35,SSE,157,0.0,4.0,36,0.00,,---,0.00,VWS V13.01,2013-03-19 17:36:00,
2013-03-19 11:41:00,31.5,8.8,30.35,NNE,15,0.0,6.0,38,0.00,,---,0.00,VWS V13.01,2013-03-19 17:41:00,
2013-03-19 11:46:00,31.8,9.1,30.34,NE,38,4.0,7.0,38,0.00,,---,0.00,VWS V13.01,2013-03-19 17:46:00,
2013-03-19 11:51:00,31.9,8.0,30.34,NE,35,0.0,9.0,36,0.00,,---,0.00,VWS V13.01,2013-03-19 17:51:00,
2013-03-19 11:56:00,32.1,12.1,30.34,WSW,258,3.0,8.0,43,0.00,,---,0.00,VWS V13.01,2013-03-19 17:56:00,
2013-03-19 12:02:00,32.4,10.2,30.34,NNE,32,1.0,6.0,39,0.00,,---,0.00,VWS V13.01,2013-03-19 18:02:00,
2013-03-19 12:07:00,32.7,14.2,30.34,NNW,329,5.0,6.0,46,0.00,,---,0.00,VWS V13.01,2013-03-19 18:07:00,
2013-03-19 12:12:00,32.8,5.5,30.34,SSW,213,0.0,1.0,31,0.00,,---,0.00,VWS V13.01,2013-03-19 18:12:00,
2013-03-19 12:17:00,32.9,4.1,30.34,West,260,6.0,6.0,29,0.00,,---,0.00,VWS V13.01,2013-03-19 18:17:00,
2013-03-19 12:23:00,33.1,5.1,30.34,WSW,254,0.0,3.0,30,0.00,,---,0.00,VWS V13.01,2013-03-19 18:23:00,
2013-03-19 12:28:00,33.5,7.5,30.34,NW,317,3.0,4.0,33,0.00,,---,0.00,VWS V13.01,2013-03-19 18:28:00,
2013-03-19 12:33:00,33.8,10.9,30.33,ENE,65,0.0,2.0,38,0.00,,---,0.00,VWS V13.01,2013-03-19 18:33:00,
2013-03-19 12:38:00,34.0,9.2,30.33,North,360,0.0,3.0,35,0.00,,---,0.00,VWS V13.01,2013-03-19 18:38:00,
2013-03-19 12:44:00,34.3,6.8,30.33,WSW,254,0.0,4.0,31,0.00,,---,0.00,VWS V13.01,2013-03-19 18:44:00,
2013-03-19 12:49:00,34.4,6.2,30.32,WSW,249,2.0,7.0,30,0.00,,---,0.00,VWS V13.01,2013-03-19 18:49:00,
2013-03-19 12:54:00,35.0,4.4,30.32,West,259,10.0,10.0,27,0.00,,---,0.00,VWS V13.01,2013-03-19 18:54:00,
2013-03-19 12:59:00,35.5,9.3,30.32,WNW,286,5.0,5.0,33,0.00,,---,0.00,VWS V13.01,2013-03-19 18:59:00,
2013-03-19 13:04:00,35.8,2.5,30.31,SSW,193,0.0,6.0,24,0.00,,---,0.00,VWS V13.01,2013-03-19 19:04:00,
2013-03-19 13:10:00,35.8,5.9,30.31,WSW,250,0.0,6.0,28,0.00,,---,0.00,VWS V13.01,2013-03-19 19:10:00,
2013-03-19 13:15:00,36.0,6.1,30.31,WSW,246,0.0,1.0,28,0.00,,---,0.00,VWS V13.01,2013-03-19 19:15:00,
2013-03-19 13:20:00,36.6,5.8,30.31,SE,141,1.0,4.0,27,0.00,,---,0.00,VWS V13.01,2013-03-19 19:20:00,
2013-03-19 13:25:00,37.0,7.7,30.31,ENE,66,2.0,6.0,29,0.00,,---,0.00,VWS V13.01,2013-03-19 19:25:00,
2013-03-19 13:30:00,38.2,8.0,30.30,NE,40,3.0,5.0,28,0.00,,---,0.00,VWS V13.01,2013-03-19 19:30:00,
2013-03-19 13:35:00,39.5,10.6,30.30,ENE,59,0.0,4.0,30,0.00,,---,0.00,VWS V13.01,2013-03-19 19:35:00,
2013-03-19 13:41:00,40.6,9.2,30.30,NNE,27,7.0,10.0,27,0.00,,---,0.00,VWS V13.01,2013-03-19 19:41:00,
2013-03-19 13:46:00,41.3,7.2,30.29,NNW,335,0.0,1.0,24,0.00,,---,0.00,VWS V13.01,2013-03-19 19:46:00,
2013-03-19 13:51:00,41.5,7.4,30.29,NW,310,0.0,7.0,24,0.00,,---,0.00,VWS V13.01,2013-03-19 19:51:00,
2013-03-19 13:56:00,41.9,4.8,30.29,West,263,0.0,5.0,21,0.00,,---,0.00,VWS V13.01,2013-03-19 19:56:00,
2013-03-19 14:02:00,41.6,3.5,30.28,WNW,300,0.0,2.0,20,0.00,,---,0.00,VWS V13.01,2013-03-19 20:02:00,
2013-03-19 14:07:00,41.8,3.7,30.28,WNW,286,0.0,3.0,20,0.00,,---,0.00,VWS V13.01,2013-03-19 20:07:00,
2013-03-19 14:12:00,41.6,10.1,30.28,West,278,0.0,0.0,27,0.00,,---,0.00,VWS V13.01,2013-03-19 20:12:00,
2013-03-19 14:18:00,41.8,8.6,30.27,East,97,1.0,10.0,25,0.00,,---,0.00,VWS V13.01,2013-03-19 20:18:00,
2013-03-19 14:23:00,42.3,4.1,30.27,NE,35,0.0,1.0,20,0.00,,---,0.00,VWS V13.01,2013-03-19 20:23:00,
2013-03-19 14:28:00,42.8,8.5,30.27,NW,325,0.0,3.0,24,0.00,,---,0.00,VWS V13.01,2013-03-19 20:28:00,
2013-03-19 14:33:00,43.5,10.0,30.25,NNE,28,0.0,4.0,25,0.00,,---,0.00,VWS V13.01,2013-03-19 20:33:00,
2013-03-19 14:38:00,44.8,11.1,30.25,NNW,342,0.0,6.0,25,0.00,,---,0.00,VWS V13.01,2013-03-19 20:38:00,
2013-03-19 14:43:00,45.2,7.6,30.25,WNW,296,0.0,1.0,21,0.00,,---,0.00,VWS V13.01,2013-03-19 20:43:00,
2013-03-19 14:49:00,44.3,3.5,30.24,East,88,1.0,2.0,18,0.00,,---,0.00,VWS V13.01,2013-03-19 20:49:00,
2013-03-19 14:54:00,43.9,3.2,30.24,ESE,111,1.0,2.0,18,0.00,,---,0.00,VWS V13.01,2013-03-19 20:54:00,
2013-03-19 14:59:00,43.5,1.6,30.24,West,261,0.0,3.0,17,0.00,,---,0.00,VWS V13.01,2013-03-19 20:59:00,
2013-03-19 15:04:00,42.6,2.1,30.25,North,360,5.0,5.0,18,0.00,,---,0.00,VWS V13.01,2013-03-19 21:04:00,
2013-03-19 15:10:00,42.8,3.4,30.25,NNE,12,0.0,4.0,19,0.00,,---,0.00,VWS V13.01,2013-03-19 21:10:00,
2013-03-19 15:15:00,43.8,4.2,30.25,NW,313,3.0,3.0,19,0.00,,---,0.00,VWS V13.01,2013-03-19 21:15:00,
2013-03-19 15:20:00,43.5,0.3,30.25,NNW,327,0.0,4.0,16,0.00,,---,0.00,VWS V13.01,2013-03-19 21:20:00,
2013-03-19 15:25:00,43.5,-1.1,30.25,East,80,1.0,2.0,15,0.00,,---,0.00,VWS V13.01,2013-03-19 21:25:00,
2013-03-19 15:30:00,43.6,1.7,30.24,North,5,2.0,6.0,17,0.00,,---,0.00,VWS V13.01,2013-03-19 21:30:00,
2013-03-19 15:36:00,43.8,4.2,30.24,SW,234,0.0,3.0,19,0.00,,---,0.00,VWS V13.01,2013-03-19 21:36:00,
2013-03-19 15:41:00,43.5,2.8,30.24,North,355,1.0,3.0,18,0.00,,---,0.00,VWS V13.01,2013-03-19 21:41:00,
2013-03-19 15:46:00,43.8,3.1,30.24,North,9,1.0,1.0,18,0.00,,---,0.00,VWS V13.01,2013-03-19 21:46:00,
2013-03-19 15:51:00,43.3,2.7,30.24,WSW,252,0.0,2.0,18,0.00,,---,0.00,VWS V13.01,2013-03-19 21:51:00,
2013-03-19 15:57:00,42.3,5.2,30.24,NNE,13,1.0,2.0,21,0.00,,---,0.00,VWS V13.01,2013-03-19 21:57:00,
2013-03-19 16:03:00,41.3,1.0,30.25,SW,229,0.0,3.0,18,0.00,,---,0.00,VWS V13.01,2013-03-19 22:03:00,
2013-03-19 16:08:00,40.8,3.9,30.25,ENE,67,1.0,3.0,21,0.00,,---,0.00,VWS V13.01,2013-03-19 22:08:00,
2013-03-19 16:13:00,40.3,1.3,30.25,South,171,0.0,2.0,19,0.00,,---,0.00,VWS V13.01,2013-03-19 22:13:00,
2013-03-19 16:19:00,39.9,-0.2,30.26,SSW,195,0.0,2.0,18,0.00,,---,0.00,VWS V13.01,2013-03-19 22:19:00,
2013-03-19 16:24:00,39.5,1.8,30.26,NNE,29,1.0,3.0,20,0.00,,---,0.00,VWS V13.01,2013-03-19 22:24:00,
2013-03-19 16:29:00,39.3,2.6,30.26,SSW,211,0.0,4.0,21,0.00,,---,0.00,VWS V13.01,2013-03-19 22:29:00,
2013-03-19 16:34:00,39.2,2.6,30.27,South,171,0.0,1.0,21,0.00,,---,0.00,VWS V13.01,2013-03-19 22:34:00,
2013-03-19 16:39:00,39.1,2.5,30.27,SW,217,1.0,4.0,21,0.00,,---,0.00,VWS V13.01,2013-03-19 22:39:00,
2013-03-19 16:45:00,39.2,0.4,30.27,SSE,159,0.0,5.0,19,0.00,,---,0.00,VWS V13.01,2013-03-19 22:45:00,
2013-03-19 16:50:00,39.1,1.4,30.27,West,273,0.0,3.0,20,0.00,,---,0.00,VWS V13.01,2013-03-19 22:50:00,
2013-03-19 16:55:00,38.9,-1.0,30.27,WSW,244,0.0,4.0,18,0.00,,---,0.00,VWS V13.01,2013-03-19 22:55:00,
2013-03-19 17:00:00,38.8,1.2,30.27,WSW,251,0.0,2.0,20,0.00,,---,0.00,VWS V13.01,2013-03-19 23:00:00,
2013-03-19 17:06:00,38.9,0.2,30.27,WSW,243,0.0,5.0,19,0.00,,---,0.00,VWS V13.01,2013-03-19 23:06:00,
2013-03-19 17:11:00,38.8,1.2,30.27,WSW,243,0.0,0.0,20,0.00,,---,0.00,VWS V13.01,2013-03-19 23:11:00,
2013-03-19 17:17:00,38.8,1.2,30.25,West,278,2.0,3.0,20,0.00,,---,0.00,VWS V13.01,2013-03-19 23:17:00,
2013-03-19 17:22:00,38.8,2.2,30.25,NNW,333,0.0,0.0,21,0.00,,---,0.00,VWS V13.01,2013-03-19 23:22:00,
2013-03-19 17:27:00,38.8,3.2,30.25,North,350,0.0,1.0,22,0.00,,---,0.00,VWS V13.01,2013-03-19 23:27:00,
2013-03-19 17:33:00,38.5,-0.2,30.25,WSW,252,1.0,1.0,19,0.00,,---,0.00,VWS V13.01,2013-03-19 23:33:00,
2013-03-19 17:38:00,38.3,0.8,30.25,WSW,252,4.0,4.0,20,0.00,,---,0.00,VWS V13.01,2013-03-19 23:38:00,
2013-03-19 17:43:00,38.2,1.7,30.25,WNW,294,6.0,7.0,21,0.00,,---,0.00,VWS V13.01,2013-03-19 23:43:00,
2013-03-19 17:49:00,38.3,3.8,30.26,WSW,244,0.0,2.0,23,0.00,,---,0.00,VWS V13.01,2013-03-19 23:49:00,
2013-03-19 17:54:00,38.3,1.8,30.26,WSW,250,2.0,3.0,21,0.00,,---,0.00,VWS V13.01,2013-03-19 23:54:00,
2013-03-19 17:59:00,38.5,0.9,30.26,SW,227,1.0,4.0,20,0.00,,---,0.00,VWS V13.01,2013-03-19 23:59:00,
2013-03-19 18:04:00,38.5,0.9,30.24,South,177,0.0,2.0,20,0.00,,---,0.00,VWS V13.01,2013-03-20 00:04:00,
2013-03-19 18:09:00,38.6,2.0,30.24,SSW,213,0.0,4.0,21,0.00,,---,0.00,VWS V13.01,2013-03-20 00:09:00,
2013-03-19 18:15:00,38.3,3.8,30.24,ESE,109,0.0,4.0,23,0.00,,---,0.00,VWS V13.01,2013-03-20 00:15:00,
2013-03-19 18:20:00,38.3,4.7,30.25,SE,127,0.0,1.0,24,0.00,,---,0.00,VWS V13.01,2013-03-20 00:20:00,
2013-03-19 18:25:00,38.3,3.8,30.25,SE,127,1.0,1.0,23,0.00,,---,0.00,VWS V13.01,2013-03-20 00:25:00,
2013-03-19 18:30:00,38.3,4.7,30.24,West,267,0.0,6.0,24,0.00,,---,0.00,VWS V13.01,2013-03-20 00:30:00,
2013-03-19 18:35:00,38.3,6.4,30.24,West,266,0.0,1.0,26,0.00,,---,0.00,VWS V13.01,2013-03-20 00:35:00,
2013-03-19 18:40:00,38.0,5.3,30.24,West,265,1.0,1.0,25,0.00,,---,0.00,VWS V13.01,2013-03-20 00:40:00,
2013-03-19 18:46:00,37.8,5.2,30.23,SSW,213,0.0,3.0,25,0.00,,---,0.00,VWS V13.01,2013-03-20 00:46:00,
2013-03-19 18:51:00,37.3,4.7,30.23,SW,216,0.0,2.0,25,0.00,,---,0.00,VWS V13.01,2013-03-20 00:51:00,
2013-03-19 18:56:00,37.2,4.6,30.23,SSW,206,0.0,1.0,25,0.00,,---,0.00,VWS V13.01,2013-03-20 00:56:00,
2013-03-19 19:01:00,36.9,6.8,30.23,SSW,206,0.0,0.0,28,0.00,,---,0.00,VWS V13.01,2013-03-20 01:01:00,
2013-03-19 19:06:00,36.5,7.3,30.23,SSW,206,0.0,0.0,29,0.00,,---,0.00,VWS V13.01,2013-03-20 01:06:00,
2013-03-19 19:12:00,35.9,7.5,30.23,SSW,206,0.0,0.0,30,0.00,,---,0.00,VWS V13.01,2013-03-20 01:12:00,
2013-03-19 19:17:00,35.3,9.1,30.24,SSW,206,0.0,0.0,33,0.00,,---,0.00,VWS V13.01,2013-03-20 01:17:00,
2013-03-19 19:22:00,34.7,10.5,30.24,SSW,206,0.0,0.0,36,0.00,,---,0.00,VWS V13.01,2013-03-20 01:22:00,
2013-03-19 19:27:00,33.8,12.1,30.24,SSW,206,0.0,0.0,40,0.00,,---,0.00,VWS V13.01,2013-03-20 01:27:00,
2013-03-19 19:33:00,33.1,10.9,30.23,SSW,206,0.0,0.0,39,0.00,,---,0.00,VWS V13.01,2013-03-20 01:33:00,
2013-03-19 19:38:00,32.4,11.3,30.23,SSW,206,0.0,0.0,41,0.00,,---,0.00,VWS V13.01,2013-03-20 01:38:00,
2013-03-19 19:43:00,31.8,11.3,30.23,SSW,206,0.0,0.0,42,0.00,,---,0.00,VWS V13.01,2013-03-20 01:43:00,
2013-03-19 19:48:00,31.0,11.1,30.24,SSW,206,0.0,0.0,43,0.00,,---,0.00,VWS V13.01,2013-03-20 01:48:00,
2013-03-19 19:53:00,30.6,10.8,30.24,SSW,206,0.0,0.0,43,0.00,,---,0.00,VWS V13.01,2013-03-20 01:53:00,
2013-03-19 19:59:00,30.0,11.7,30.24,SSW,205,0.0,0.0,46,0.00,,---,0.00,VWS V13.01,2013-03-20 01:59:00,
2013-03-19 20:04:00,29.5,11.3,30.25,SSW,205,0.0,0.0,46,0.00,,---,0.00,VWS V13.01,2013-03-20 02:04:00,
2013-03-19 20:09:00,29.3,11.6,30.25,SSW,205,0.0,0.0,47,0.00,,---,0.00,VWS V13.01,2013-03-20 02:09:00,
2013-03-19 20:14:00,29.0,10.3,30.25,SSW,205,0.0,0.0,45,0.00,,---,0.00,VWS V13.01,2013-03-20 02:14:00,
2013-03-19 20:19:00,28.5,10.9,30.25,SSW,205,0.0,0.0,47,0.00,,---,0.00,VWS V13.01,2013-03-20 02:19:00,
2013-03-19 20:25:00,28.4,10.8,30.25,SSW,205,0.0,0.0,47,0.00,,---,0.00,VWS V13.01,2013-03-20 02:25:00,
2013-03-19 20:30:00,28.4,10.8,30.25,SSW,205,0.0,0.0,47,0.00,,---,0.00,VWS V13.01,2013-03-20 02:30:00,
2013-03-19 20:35:00,28.7,10.6,30.24,SSW,205,0.0,0.0,46,0.00,,---,0.00,VWS V13.01,2013-03-20 02:35:00,
2013-03-19 20:40:00,28.8,10.6,30.24,SSW,205,0.0,0.0,46,0.00,,---,0.00,VWS V13.01,2013-03-20 02:40:00,
2013-03-19 20:45:00,29.0,10.8,30.24,SSW,205,0.0,0.0,46,0.00,,---,0.00,VWS V13.01,2013-03-20 02:45:00,
2013-03-19 20:50:00,29.0,10.8,30.24,SSW,205,0.0,0.0,46,0.00,,---,0.00,VWS V13.01,2013-03-20 02:50:00,
2013-03-19 20:56:00,28.8,10.6,30.24,SSW,205,0.0,0.0,46,0.00,,---,0.00,VWS V13.01,2013-03-20 02:56:00,
2013-03-19 21:01:00,28.8,11.1,30.23,SSW,205,0.0,0.0,47,0.00,,---,0.00,VWS V13.01,2013-03-20 03:01:00,
2013-03-19 21:06:00,28.7,11.0,30.23,SSW,205,0.0,0.0,47,0.00,,---,0.00,VWS V13.01,2013-03-20 03:06:00,
2013-03-19 21:11:00,28.5,10.9,30.23,SSW,205,0.0,0.0,47,0.00,,---,0.00,VWS V13.01,2013-03-20 03:11:00,
2013-03-19 21:16:00,28.5,10.9,30.22,SSW,205,0.0,1.0,47,0.00,,---,0.00,VWS V13.01,2013-03-20 03:16:00,
2013-03-19 21:21:00,28.2,9.6,30.22,ESE,107,1.0,1.0,45,0.00,,---,0.00,VWS V13.01,2013-03-20 03:21:00,
2013-03-19 21:27:00,28.4,9.3,30.22,ESE,111,0.0,1.0,44,0.00,,---,0.00,VWS V13.01,2013-03-20 03:27:00,
2013-03-19 21:32:00,28.4,9.8,30.23,ESE,111,0.0,0.0,45,0.00,,---,0.00,VWS V13.01,2013-03-20 03:32:00,
2013-03-19 21:37:00,28.2,10.1,30.23,ESE,111,0.0,0.0,46,0.00,,---,0.00,VWS V13.01,2013-03-20 03:37:00,
2013-03-19 21:43:00,27.9,9.8,30.23,ESE,111,0.0,0.0,46,0.00,,---,0.00,VWS V13.01,2013-03-20 03:43:00,
2013-03-19 21:48:00,27.6,9.5,30.22,ESE,111,0.0,1.0,46,0.00,,---,0.00,VWS V13.01,2013-03-20 03:48:00,
2013-03-19 21:53:00,27.3,9.7,30.22,ESE,111,0.0,0.0,47,0.00,,---,0.00,VWS V13.01,2013-03-20 03:53:00,
2013-03-19 21:59:00,27.2,9.6,30.22,ESE,111,0.0,1.0,47,0.00,,---,0.00,VWS V13.01,2013-03-20 03:59:00,
2013-03-19 22:00:00,27.2,9.6,30.22,ESE,111,0.0,1.0,47,0.00,,---,0.00,VWS V13.01,2013-03-20 04:00:00,
2013-03-19 22:01:00,27.2,9.6,30.22,ESE,111,0.0,1.0,47,0.00,,---,0.00,VWS V13.01,2013-03-20 04:01:00,
2013-03-19 22:06:00,27.2,9.2,30.22,ESE,111,0.0,1.0,46,0.00,,---,0.00,VWS V13.01,2013-03-20 04:06:00,
2013-03-19 22:11:00,27.5,9.0,30.22,ESE,111,0.0,0.0,45,0.00,,---,0.00,VWS V13.01,2013-03-20 04:11:00,
2013-03-19 22:16:00,27.6,8.6,30.20,ESE,111,0.0,0.0,44,0.00,,---,0.00,VWS V13.01,2013-03-20 04:16:00,
2013-03-19 22:22:00,27.6,10.0,30.20,ESE,111,0.0,0.0,47,0.00,,---,0.00,VWS V13.01,2013-03-20 04:22:00,
2013-03-19 22:27:00,27.6,9.5,30.20,ESE,111,0.0,0.0,46,0.00,,---,0.00,VWS V13.01,2013-03-20 04:27:00,
2013-03-19 22:32:00,27.5,10.9,30.20,ESE,111,0.0,0.0,49,0.00,,---,0.00,VWS V13.01,2013-03-20 04:32:00,
2013-03-19 22:37:00,27.2,11.0,30.20,ESE,111,0.0,0.0,50,0.00,,---,0.00,VWS V13.01,2013-03-20 04:37:00,
2013-03-19 22:42:00,27.2,11.0,30.20,ESE,111,0.0,0.0,50,0.00,,---,0.00,VWS V13.01,2013-03-20 04:42:00,
2013-03-19 22:47:00,27.2,10.1,30.19,ESE,111,0.0,0.0,48,0.00,,---,0.00,VWS V13.01,2013-03-20 04:47:00,
2013-03-19 22:52:00,27.2,8.7,30.19,ESE,111,0.0,0.0,45,0.00,,---,0.00,VWS V13.01,2013-03-20 04:52:00,
2013-03-19 22:57:00,27.3,9.7,30.19,ESE,111,0.0,0.0,47,0.00,,---,0.00,VWS V13.01,2013-03-20 04:57:00,
2013-03-19 23:02:00,27.5,9.4,30.19,ESE,111,0.0,0.0,46,0.00,,---,0.00,VWS V13.01,2013-03-20 05:02:00,
2013-03-19 23:08:00,27.6,9.1,30.19,ESE,111,0.0,0.0,45,0.00,,---,0.00,VWS V13.01,2013-03-20 05:08:00,
2013-03-19 23:13:00,27.8,9.7,30.19,ESE,111,0.0,0.0,46,0.00,,---,0.00,VWS V13.01,2013-03-20 05:13:00,
2013-03-19 23:18:00,28.1,10.5,30.16,ESE,111,0.0,0.0,47,0.00,,---,0.00,VWS V13.01,2013-03-20 05:18:00,
2013-03-19 23:23:00,28.4,10.8,30.16,ESE,111,0.0,0.0,47,0.00,,---,0.00,VWS V13.01,2013-03-20 05:23:00,
2013-03-19 23:28:00,28.8,11.1,30.16,ESE,111,0.0,0.0,47,0.00,,---,0.00,VWS V13.01,2013-03-20 05:28:00,
2013-03-19 23:33:00,29.0,9.3,30.15,ESE,111,0.0,0.0,43,0.00,,---,0.00,VWS V13.01,2013-03-20 05:33:00,
2013-03-19 23:39:00,29.3,10.1,30.15,ESE,111,0.0,0.0,44,0.00,,---,0.00,VWS V13.01,2013-03-20 05:39:00,
2013-03-19 23:44:00,29.3,9.1,30.15,ESE,111,0.0,0.0,42,0.00,,---,0.00,VWS V13.01,2013-03-20 05:44:00,
2013-03-19 23:49:00,29.3,9.1,30.14,ESE,111,0.0,0.0,42,0.00,,---,0.00,VWS V13.01,2013-03-20 05:49:00,
2013-03-19 23:54:00,29.3,9.1,30.14,ESE,111,0.0,0.0,42,0.00,,---,0.00,VWS V13.01,2013-03-20 05:54:00,